x

Central Gulf Of Alaska - 265nm West Of Cape Ommaney, Akk (46085) Wave Buoy

7:50am - Tue 30th Jun 2015 All times are UTC.

  • Sig Wave height 4.3ft
  • Peak Period 6s
  • Average Period 4s
  • Wind
    16mph, 20mph gusts
  • Sea Temp 54°f
  • Air Temp 53°f
  • Sea Pressure 1020mb

More Historic Weather Station data

Upgrade to MSW Pro to gain access to the past 30 days of data for over 8000 Wavebouys and Weather Stations around the globe.

Join Pro

Comparision Forecast

View Surf forecast
   
Tue 06/30 7:50am 4.5ft 6s 4s 16 20 mph 1020mb 54f 53f
6:50am 4.5ft 6s 4s 16 18 mph 1019.8mb 53f 53f
5:50am 4ft 5s 4s 16 18 mph 1019.3mb 53f 53f
4:50am 4ft 5s 4s 16 20 mph 1019mb 54f 53f
3:50am 4ft 6s 4s 18 20 mph 1018.7mb 54f 53f
2:50am 3.5ft 5s 4s 16 18 mph 1018.2mb 54f 53f
12:50am 3.5ft 4s 4s 16 18 mph 1017.7mb 54f 53f
Mon 06/29 11:50pm 3.5ft 4s 4s 18 20 mph 1017.5mb 54f 53f
10:50pm 3.5ft 4s 4s 18 20 mph 1017.2mb 54f 53f
9:50pm 3ft 5s 4s 16 18 mph 1016.8mb 54f 53f
8:50pm 2.5ft 5s 4s 16 20 mph 1016.1mb 53f 53f
7:50pm 2.5ft 6s 4s 13 18 mph 1015.6mb 53f 53f
6:50pm 3ft 6s 4s 11 13 mph 1015.1mb 53f 52f
4:50pm 3ft 5s 4s 11 13 mph 1014.6mb 54f 53f
3:50pm 3ft 5s 4s 11
mph
1014.4mb 54f 54f
2:50pm 3ft 6s 4s 11 13 mph 1014.4mb 53f 53f
1:50pm 3.5ft 6s 4s 11 13 mph 1014.3mb 53f 53f
12:50pm 3.5ft 5s 4s 11 13 mph 1014.4mb 53f 53f
11:50am 3.5ft 6s 5s 13 16 mph 1014.2mb 53f 53f
10:50am 3.5ft 6s 4s 11 13 mph 1014.3mb 53f 53f
9:50am 3.5ft 6s 5s 11 13 mph 1014.4mb 53f 53f
8:50am 4ft 6s 5s 13 16 mph 1014.3mb 53f 53f
7:50am 4ft 6s 4s 13 18 mph 1014.4mb 53f 53f
6:50am 4ft 6s 4s 13 16 mph 1014.6mb 53f 53f
5:50am 4.5ft 6s 4s 18 20 mph 1014.7mb 53f 53f
4:50am 4.5ft 6s 4s 18 20 mph 1014.8mb 53f 53f
3:50am 4.5ft 7s 4s 18 20 mph 1015mb 53f 54f
2:50am 4.5ft 6s 4s 16 20 mph 1015.2mb 53f 53f
1:50am 4.5ft 6s 4s 18 20 mph 1015.4mb 53f 54f
12:50am 4.5ft 6s 4s 18 20 mph 1015.9mb 53f 54f
Sun 06/28 11:50pm 5ft 6s 5s 16 20 mph 1016.1mb 53f 54f
10:50pm 5ft 5s 5s 18 22 mph 1016.3mb 53f 54f
9:50pm 4.5ft 6s 4s 18 22 mph 1016.2mb 53f 54f
8:50pm 4.5ft 6s 4s 18 22 mph 1016.2mb 53f 54f
7:50pm 5ft 7s 5s 18 22 mph 1016.3mb 53f 54f
6:50pm 5ft 8s 5s 18 22 mph 1016.2mb 53f 54f
5:50pm 5ft 7s 5s 18 22 mph 1016.3mb 53f 53f
4:50pm 5ft 7s 5s 18 20 mph 1016.2mb 53f 53f
3:50pm 4.5ft 7s 5s 18 20 mph 1016.2mb 53f 53f
2:50pm 4.5ft 8s 5s 16 18 mph 1016.1mb 53f 53f
1:50pm 4.5ft 8s 5s 16 20 mph 1016.1mb 53f 53f
12:50pm 5ft 7s 5s 16 20 mph 1015.9mb 53f 54f
11:50am 5ft 7s 5s 18 22 mph 1015.9mb 53f 53f
10:50am 5ft 6s 5s 20 22 mph 1015.9mb 53f 53f
9:50am 5ft 6s 5s 18 20 mph 1015.8mb 53f 53f
8:50am 5ft 7s 5s 18 22 mph 1015.6mb 53f 53f
7:50am 5ft 7s 5s 18 22 mph 1015.5mb 53f 53f
6:50am 5ft 7s 5s 18 20 mph 1015.3mb 53f 53f
5:50am 5ft 7s 5s 18 20 mph 1015mb 53f 53f
4:50am 5.5ft 7s 5s 18 22 mph 1015mb 53f 53f
3:50am 5ft 7s 5s 16 18 mph 1015mb 53f 53f
2:50am 5ft 7s 5s 18 20 mph 1014.8mb 53f 53f
1:50am 5ft 7s 5s 18 22 mph 1014.9mb 53f 53f
12:50am 5ft 7s 5s 16 20 mph 1015mb 53f 53f
Sat 06/27 11:50pm 5ft 8s 5s 16 20 mph 1014.9mb 53f 53f
10:50pm 6ft 7s 5s 16 18 mph 1014.8mb 53f 53f
9:50pm 6ft 7s 5s 16 18 mph 1014.6mb 53f 53f
8:50pm 5.5ft 8s 5s 18 20 mph 1014.4mb 53f 53f
7:50pm 6ft 8s 5s 18 20 mph 1014.1mb 53f 53f
6:50pm 6ft 8s 5s 16 20 mph 1013.8mb 53f 53f
5:50pm 6ft 8s 5s 16 18 mph 1013.8mb 53f 53f
4:50pm 6ft 9s 5s 18 22 mph 1013.6mb 53f 53f
3:50pm 5ft 7s 5s 18 20 mph 1013.5mb 53f 53f
2:50pm 6.5ft 7s 6s 18 20 mph 1013.4mb 53f 53f
1:50pm 6ft 8s 6s 16 20 mph 1013.5mb 53f 53f
12:50pm 6ft 9s 5s 16 20 mph 1013.7mb 53f 53f
11:50am 6ft 8s 5s 18 20 mph 1014mb 53f 53f
10:50am 6ft 8s 5s 16 20 mph 1014.1mb 53f 53f
9:50am 6ft 8s 5s 18 22 mph 1014.2mb 53f 53f
8:50am 6ft 8s 5s 18 20 mph 1014.3mb 53f 53f
7:50am 5.5ft 9s 5s 20 25 mph 1014.3mb 53f 53f
6:50am 6ft 8s 5s 18 20 mph 1014.4mb 53f 53f
5:50am 6ft 7s 5s 18 20 mph 1014mb 53f 53f
4:50am 6ft 7s 5s 18 22 mph 1013.9mb 53f 54f
3:50am 6.5ft 7s 5s 18 20 mph 1013.9mb 53f 54f
2:50am 6ft 6s 5s 18 20 mph 1014.2mb 53f 54f
1:50am 5ft 7s 5s 18 22 mph 1014.7mb 53f 54f
12:50am 5ft 7s 5s 18 20 mph 1014.9mb 53f 54f
Fri 06/26 11:50pm 5ft 6s 5s 18 22 mph 1014.9mb 53f 54f
10:50pm 5.5ft 6s 5s 18 22 mph 1014.8mb 53f 54f
9:50pm 5.5ft 6s 5s 18 22 mph 1014.6mb 53f 54f
8:50pm 5.5ft 6s 5s 20 22 mph 1014.2mb 53f 54f
7:50pm 6ft 5s 5s 20 22 mph 1013.9mb 53f 54f
6:50pm 5.5ft 5s 4s 20 25 mph 1013.6mb 53f 53f
5:50pm 5ft 5s 4s 22 27 mph 1013.4mb 53f 53f
4:50pm 5ft 5s 4s 20 25 mph 1013.3mb 53f 54f
3:50pm 4.5ft 4s 4s 20 22 mph 1013.4mb 53f 54f
2:50pm 4.5ft 8s 5s 18 20 mph 1013.4mb 53f 54f
1:50pm 4.5ft 7s 4s 16 20 mph 1013.3mb 53f 53f
12:50pm 4ft 8s 4s 16 18 mph 1013.4mb 53f 53f
11:50am 4ft 7s 5s 16 18 mph 1013.5mb 53f 53f
10:50am 4ft 8s 6s 11 13 mph 1013.3mb 53f 53f
9:50am 3.5ft 7s 6s 9 11 mph 1013.3mb 53f 53f